Showing default

ELEKTRO-L 3, 44903

Orbit data source: Space-Track

ELEKTRO-L 3, 44903 is a Commonwealth of Independent States-origin payload satellite in GEO that was launched on Tue, 24 Dec 2019 UTC via a PROTON-M/DM-3 launch vehicle from the Tyuratam Missile And Space Complex (TTMTR). Payload-class satellites include a variety of spacecraft equipped with specific instruments for various scientific and technological missions. These include communications satellites like Starlink; space stations such as the ISS; scientific satellites like the Hubble; Earth observation satellites from companies like Planet Labs, Umbra, and HawkEye 360; GPS; miniature CubeSats for education and research; and military/defense satellites.

Not visible in the next 10 days
Identifier
44903, 2019-095A
Orbit
GEO
Country
Flag of CISCIS
Related business
Manufacturer
Lavochkin
Mission
Operational Civil Weather
Bus & Motor
NAVIGATOR, Unknown motor
Mass
2,283 kg wet, 1,589 kg dry
Launch date (UTC)
2019-12-24 (7 years ago)
Launch vehicle
PROTON-M/DM-3
Launch site
Tyuratam Missile And Space Complex (TTMTR)
Object type
Payload
Rocket body
Debris
Shape & HBR
Box + 1 Pan + 1 Ant, 1.7 m
Radar Cross Section
11.105 m², Large (>1 m²)

Expand to show TLE details & history
Last TLE update: 22 hours ago

TLE from 22 hours ago
0 ELEKTRO-L 3
1 44903U 19095A   26267.00183764  .00000097  00000-0  00000-0 0  9992
2 44903   0.5040  82.3006 0003096  78.2268 244.3441  0.99408384 24699
Epoch: 2026-09-24T00:02Z
TLE epoch observation values (Epoch: 2026-09-24T00:02:38.772Z)
Latitude
-0.32746°
Longitude
41.31491°
Altitude
36,035.675 km
Speed
3.065 km/s
True Right ascension
02h 59m 17s
True Declination
0° 19' 38"
Sunlit
Object was in daylight at epoch
Visualization orbit readout
Latitude
Unknown
Longitude
Unknown
Altitude
Unknown
Speed
Unknown
Apparent Right ascension
Unknown
Apparent Declination
Unknown
Sunlit
N/A
Visualization observer readout
Local Sidereal Time
15:16:42
Azimuth
Unknown
Elevation
Unknown
Doppler factor
Unknown
Orbital elements
Apogee altitude
36,044.582 km
Perigee altitude
36,018.322 km
Semi-major axis
42,409.589 km
Eccentricity
0.00031
Inclination
0.504°
RAAN
82.3006°
Arg. of periapsis
78.2268°
True anomaly
244.31213°
Mean anomaly
244.3441°
Eccentric anomaly
244.32811°
Mean motion
0.24851 °/min
Orbital period
1,448.62 mins
BSTAR
0
Loading maneuver chart data...
Computing Atmospheric mass density...
Loading historical data...
Loading historical data...
Loading historical data...
Loading historical data...
Loading historical data...
Loading historical data...
Loading historical data...
Other satellites on launch #95 in the year 2019 (2019-12-24 UTC)

Documentation

Showing up to 5 results
|